Location: *
(45.0236°N, 2.9992°E)
Time: 15:19:24
(UTC+00:00)

Daily predictions for brighter satellites

Satellite Brightness Start Highest point End
(mag) Time Altitude Azimuth Time Altitude Azimuth Time Altitude Azimuth
CORIOLIS 4.2 17:13:48 10° SSE 17:19:09 82° ENE 17:24:33 10° NNW
Cosmos 2058 Rocket 3.0 17:15:11 10° S 17:19:31 74° E 17:23:53 10° NNE
Cosmos 1300 4.3 17:18:53 10° ESE 17:21:10 15° E 17:23:28 10° NE
Abrixas rocket 2.3 17:18:15 10° W 17:21:18 59° NNW 17:24:20 10° ENE
Unknown 3.4 17:20:09 10° NW 17:23:36 52° NNE 17:27:03 10° ESE
NOAA 12 4.1 17:19:40 10° SSE 17:24:54 67° ENE 17:30:12 10° N
Envisat 3.2 17:20:16 10° SE 17:25:11 52° ENE 17:30:06 10° N
COBE Rocket 4.2 17:20:55 10° NNE 17:25:55 51° E 17:30:48 10° S
Cosmos 1328 3.8 17:25:55 10° N 17:29:54 89° E 17:33:50 10° S
Cosmos 1356 3.7 17:27:26 10° SSW 17:30:51 73° WNW 17:34:19 10° N
H-2A R/B 3.2 17:28:08 10° S 17:32:02 71° W 17:35:58 10° NNW
COSMO-SKYMED 1 3.0 17:28:47 10° NNE 17:32:54 40° E 17:36:59 10° SSE
Cosmos 2082 Rocket 2.4 17:30:24 10° NNW 17:35:59 52° ENE 17:41:31 10° SE
USA 238 DEB 3.7 17:30:19 10° SSW 17:36:53 63° ESE 17:43:41 10° NE
USA 238 3.7 17:30:26 10° SSW 17:36:59 63° ESE 17:43:47 10° NE
Cosmos 2058 4.1 17:37:06 10° NNE 17:40:26 22° ENE 17:43:44 10° ESE
Unknown 4.1 17:40:12 10° NW 17:43:43 37° NNE 17:46:21 16° E
Cosmos 1339 Rocket 4.4 17:38:36 10° S 17:44:38 69° E 17:50:47 10° NNE
Unknown 3.1 17:41:11 10° NW 17:44:42 80° NNE 17:47:59 12° ESE
Cosmos 1076 Rocket 4.1 17:42:55 10° N 17:46:56 35° ENE 17:50:54 10° SE
Okean-O 3.3 17:46:07 10° S 17:50:30 60° W 17:54:54 10° NNW
Cosmos 1939 Rocket 4.0 17:47:24 10° ESE 17:50:41 24° ENE 17:54:00 10° NNE
Cosmos 1726 3.3 17:47:11 10° SSW 17:50:42 45° WNW 17:54:14 10° N
ATLAS 5 CENTAUR R/B 4.2 17:53:40 10° NW 17:56:09 14° NNW 17:58:48 10° NNE
SKYMED 3 4.5 17:52:34 10° NNE 17:56:56 73° ESE 18:01:16 10° S
NOSS 3-2 (A) 3.3 17:53:02 10° SSW 17:58:44 72° ESE 18:05:12 10° NE
Cosmos 1703 4.5 17:55:20 10° NNW 17:59:07 45° W 18:02:50 10° SSW
Cosmos 1605 Rocket 4.0 17:54:52 10° N 18:01:03 83° W 18:07:09 10° S
Cosmos 2151 4.3 17:59:19 10° NNE 18:02:29 20° ENE 18:02:29 20° ENE
Ariane Rocket 3.5 18:03:17 10° SE 18:07:56 37° ENE 18:12:37 10° N
Cosmos 1812 Rocket 3.5 18:03:57 10° S 18:08:21 72° E 18:12:49 10° NNE
Cosmos 468 Rocket 4.5 18:05:15 10° SSE 18:10:04 37° ESE 18:14:51 10° NE
ADEOS Rocket 4.4 18:07:43 10° NE 18:13:05 21° E 18:13:06 21° E
Cosmos 1727 Rocket 3.9 18:08:41 10° S 18:14:50 81° E 18:21:03 10° N
Cosmos 2278 Rocket 3.1 18:10:26 10° SW 18:15:56 51° WNW 18:21:29 10° NNE
YAOGAN 6 2.9 18:12:34 10° S 18:16:11 68° W 18:19:48 10° NNW
ASTEX 1 4.2 18:11:27 10° N 18:16:18 55° W 18:21:09 10° SSW
Cosmos 2173 Rocket 4.1 18:11:05 10° N 18:17:10 52° ENE 18:23:07 10° SSE
YAOGAN 1 2.5 18:15:00 10° SSE 18:19:19 87° WSW 18:23:41 10° NNW
Cosmos 990 Rocket 4.2 18:15:35 10° N 18:20:38 48° ENE 18:23:48 22° SE
Lacrosse 5 2.4 18:15:56 10° NW 18:20:54 58° SW 18:25:45 10° SSE
SKYMED 2 4.1 18:16:42 10° N 18:21:01 62° WNW 18:25:17 10° SSW
CSL-04 Rocket 3.7 18:15:46 10° SSE 18:21:17 86° WSW 18:26:48 10° NNW
Cosmos 2297 3.7 18:16:30 10° S 18:22:06 63° ESE 18:27:47 10° NNE
Cosmos 1937 Rocket 3.9 18:18:38 10° N 18:23:28 39° ENE 18:25:12 30° ESE
CZ-4 R/B 2.2 18:21:23 10° S 18:25:31 56° W 18:29:42 10° NNW
NOSS 3-2 (C) 3.3 18:20:09 10° SSW 18:25:51 73° SE 18:31:43 13° NE
BREEZE-M DEB (TANK) 3.1 18:15:33 10° WSW 18:26:37 77° SSE 18:28:17 35° ENE
Unknown 3.8 18:23:30 10° NW 18:27:14 49° NNE 18:27:57 42° ENE
Cosmos 2123 Rocket 4.5 18:25:37 10° SSE 18:31:14 36° E 18:36:51 10° NNE
Cosmos 1802 Rocket 4.1 18:25:25 10° N 18:31:45 56° ENE 18:37:59 10° SSE
Cosmos 1570 Rocket 4.4 18:27:42 10° S 18:32:40 42° ESE 18:34:59 27° NE
USA 116 3.9 18:32:54 10° N 18:36:10 60° WNW 18:39:45 10° SSW
ATLAS CENTAUR R/B 3.6 18:33:59 10° N 18:36:02 14° NNE 18:36:02 14° NNE
Cosmos 1000 Rocket 4.4 18:30:47 10° S 18:36:53 65° E 18:43:06 10° NNE
Cosmos 1892 4.0 18:35:38 10° N 18:37:37 26° NNE 18:37:37 26° NNE
Cosmos-2242 3.0 18:35:19 10° S 18:39:34 55° E 18:43:49 10° NNE
Cosmos 1725 Rocket 4.3 18:35:41 10° N 18:41:42 44° ENE 18:43:50 33° ESE
Cosmos 44 3.3 18:37:31 10° SW 18:42:28 78° NW 18:45:15 25° NNE
NOAA 11 4.1 18:38:19 10° SSE 18:43:45 90° W 18:49:13 10° NNW
Cosmos 1833 Rocket 4.4 18:39:28 10° NW 18:44:26 33° WSW 18:49:23 10° SSW
Cosmos 1763 Rocket 3.5 18:39:24 10° S 18:44:36 58° ESE 18:47:27 26° NE
Cosmos 2100 Rocket 3.9 18:41:48 10° N 18:48:00 87° W 18:54:09 10° S
ATLAS 3B R/B 2.5 18:41:37 10° SSW 18:48:18 71° ESE 18:52:29 24° NE
Unknown 4.5 18:44:33 10° NW 18:48:25 36° NNE 18:48:27 36° NNE
Cosmos 2208 Rocket 4.1 18:45:06 10° S 18:49:40 48° ESE 18:49:40 48° ESE
BREEZE-M DEB (TANK) 3.0 18:47:59 10° WSW 18:51:06 47° WNW 18:51:06 47° WNW
Unknown 4.5 18:47:52 10° NW 18:51:38 37° NNE 18:51:38 37° NNE
CENTAUR R/B 2.4 18:47:59 10° SSW 18:53:55 80° SE 18:58:23 23° NE
Cosmos 1300 4.1 18:52:55 10° SW 18:56:30 38° WNW 19:00:06 10° N
Unknown 3.8 18:52:40 10° NW 18:56:04 56° NNW 18:56:04 56° NNW
SJ 16-02 1.2 18:52:18 10° NNW 18:56:27 70° NE 18:56:27 70° NE
Abrixas rocket 3.8 18:54:31 10° WNW 18:56:26 30° NW 18:56:26 30° NW
Cosmos 2016 Rocket 3.9 18:56:14 10° N 19:02:34 79° E 19:07:42 17° SSE
SPOT 3 Rocket 4.3 19:05:59 38° NNE 19:05:59 38° NNE 19:09:39 10° N
Cosmos 2369 Rocket 4.0 19:02:57 10° S 19:04:06 16° S 19:04:06 16° S
SL-08 R/B 4.3 19:05:55 10° N 19:12:04 78° E 19:13:56 47° SSE
Cosmos 1898 Rocket 4.1 19:11:58 10° NNW 19:17:08 54° WSW 19:19:54 26° S
MOS 1 4.2 19:17:41 46° S 19:19:28 83° WSW 19:25:09 10° NNW
H-2A R/B 2.9 19:21:20 39° NNE 19:21:20 39° NNE 19:24:56 10° N
Cosmos 2082 Rocket 4.3 19:15:09 10° NW 19:19:43 25° WSW 19:24:15 10° SSW
Cosmos 1943 Rocket 3.6 19:18:22 10° SSW 19:20:37 25° S 19:20:37 25° S
Cosmos 1766 Rocket 4.4 19:20:56 10° NNW 19:24:13 46° NW 19:24:13 46° NW
Cosmos 2151 4.5 19:35:57 10° NNW 19:39:06 35° WNW 19:39:06 35° WNW
ADEOS Rocket 3.4 19:51:50 10° NNE 19:59:28 82° WNW 20:06:25 10° SSW
ATLAS CENTAUR R/B 4.4 20:11:52 10° NNW 20:12:14 12° NNW 20:12:14 12° NNW
ATLAS 3B R/B 4.0 20:33:37 10° W 20:39:32 32° NW 20:39:47 32° NNW
CENTAUR R/B 4.1 20:39:53 10° W 20:45:26 30° NNW 20:45:36 30° NNW
